TimeMDT,TemperatureF,Dew PointF,Humidity,Sea Level PressureIn,VisibilityMPH,Wind Direction,Wind SpeedMPH,Gust SpeedMPH,PrecipitationIn,Events,Conditions,WindDirDegrees,DateUTC
12:53 AM,46.9,44.1,90,30.08,10.0,NNE,4.6,-,N/A,,Scattered Clouds,30,2013-06-14 06:53:00
1:53 AM,44.1,42.1,93,30.08,10.0,WSW,4.6,-,N/A,,Partly Cloudy,240,2013-06-14 07:53:00
2:53 AM,42.1,39.9,92,30.08,10.0,Calm,Calm,-,N/A,,Clear,0,2013-06-14 08:53:00
3:53 AM,41.0,39.0,93,30.08,10.0,Calm,Calm,-,N/A,,Partly Cloudy,0,2013-06-14 09:53:00
4:53 AM,41.0,37.9,89,30.09,10.0,Calm,Calm,-,N/A,,Clear,0,2013-06-14 10:53:00
5:53 AM,39.0,37.9,96,30.12,10.0,Calm,Calm,-,N/A,,Partly Cloudy,0,2013-06-14 11:53:00
6:53 AM,42.1,39.9,92,30.14,10.0,Calm,Calm,-,N/A,,Overcast,0,2013-06-14 12:53:00
7:53 AM,43.0,41.0,93,30.14,10.0,Calm,Calm,-,N/A,,Overcast,0,2013-06-14 13:53:00
8:53 AM,46.9,43.0,86,30.14,10.0,Calm,Calm,-,N/A,,Overcast,0,2013-06-14 14:53:00
9:53 AM,53.1,42.1,66,30.13,10.0,Calm,Calm,-,N/A,,Overcast,0,2013-06-14 15:53:00
10:53 AM,55.9,39.9,55,30.12,10.0,Calm,Calm,-,N/A,,Mostly Cloudy,0,2013-06-14 16:53:00
11:53 AM,59.0,35.1,41,30.12,10.0,West,13.8,19.6,N/A,,Mostly Cloudy,260,2013-06-14 17:53:00
12:53 PM,59.0,36.0,42,30.13,10.0,West,12.7,20.7,N/A,,Overcast,260,2013-06-14 18:53:00
1:53 PM,63.0,35.1,35,30.13,10.0,WSW,19.6,27.6,N/A,,Mostly Cloudy,250,2013-06-14 19:53:00
2:53 PM,63.0,30.9,30,30.13,10.0,West,20.7,27.6,N/A,,Mostly Cloudy,270,2013-06-14 20:53:00
3:53 PM,63.0,32.0,31,30.13,10.0,West,15.0,23.0,N/A,,Partly Cloudy,270,2013-06-14 21:53:00
4:53 PM,62.1,34.0,35,30.11,10.0,SW,8.1,-,N/A,,Overcast,220,2013-06-14 22:53:00
5:53 PM,63.0,34.0,34,30.12,10.0,WNW,13.8,-,N/A,,Overcast,290,2013-06-14 23:53:00
6:53 PM,62.1,35.1,37,30.12,10.0,WNW,12.7,23.0,N/A,,Overcast,300,2013-06-15 00:53:00
7:53 PM,62.1,36.0,38,30.11,10.0,NW,11.5,-,N/A,,Partly Cloudy,310,2013-06-15 01:53:00
8:53 PM,59.0,37.0,44,30.12,10.0,NNW,5.8,-,N/A,,Clear,340,2013-06-15 02:53:00
9:53 PM,53.1,37.9,57,30.13,10.0,NNW,5.8,-,N/A,,Clear,340,2013-06-15 03:53:00
10:53 PM,48.9,39.0,69,30.14,10.0,Calm,Calm,-,N/A,,Clear,0,2013-06-15 04:53:00
11:53 PM,45.0,37.9,76,30.15,10.0,Calm,Calm,-,N/A,,Clear,0,2013-06-15 05:53:00